N276LB DRTC-DRRN

Flight info

Callsign N276LB
Flight time N/A
Altitude 8000
Route DCT
Aircraft TBM8/L-SDFGRWY/S

Departure

Time N/A
Airport DRTC

Arrival

Time 2026-04-22 20:04
Airport Diori Hamani International Airport (DRRN)
Time Latitude Longitude Altitude Speed Heading
2026-04-22 18:37 17.42046 6.62665 1248 ft 0 kts 78°
2026-04-22 18:38 17.42073 6.62779 1237 ft 40 kts 77°
2026-04-22 18:39 17.42283 6.63950 1430 ft 107 kts 83°
2026-04-22 18:39 17.42385 6.64785 1719 ft 123 kts 83°
2026-04-22 18:39 17.42457 6.65695 2065 ft 135 kts 98°
2026-04-22 18:39 17.41938 6.66585 2318 ft 156 kts 139°
2026-04-22 18:40 17.40902 6.67021 2691 ft 169 kts 172°
2026-04-22 18:40 17.39717 6.66849 3121 ft 174 kts 202°
2026-04-22 18:40 17.38773 6.66137 3596 ft 170 kts 237°
2026-04-22 18:40 17.38363 6.64961 3926 ft 173 kts 268°
2026-04-22 18:41 17.38291 6.63700 4276 ft 179 kts 276°
2026-04-22 18:41 17.38271 6.62373 4624 ft 186 kts 268°
2026-04-22 18:41 17.37980 6.61046 5019 ft 188 kts 256°
2026-04-22 18:41 17.37652 6.59706 5326 ft 194 kts 261°
2026-04-22 18:42 17.37199 6.58357 5663 ft 197 kts 246°
2026-04-22 18:42 17.36455 6.57156 6070 ft 196 kts 235°
2026-04-22 18:42 17.35637 6.55993 6418 ft 198 kts 231°
2026-04-22 18:42 17.34725 6.54921 6812 ft 197 kts 229°
2026-04-22 18:43 17.33843 6.53810 7136 ft 200 kts 232°
2026-04-22 18:43 17.32978 6.52648 7410 ft 205 kts 231°
2026-04-22 18:43 17.32054 6.51474 7632 ft 212 kts 231°
2026-04-22 18:43 17.31130 6.50243 7835 ft 218 kts 231°
2026-04-22 18:44 17.30116 6.49048 7988 ft 225 kts 228°
2026-04-22 18:44 17.29060 6.47794 8028 ft 235 kts 227°
2026-04-22 18:44 17.27901 6.46539 7997 ft 244 kts 225°
2026-04-22 18:44 17.26734 6.45222 7995 ft 249 kts 228°
2026-04-22 18:45 17.25591 6.43850 7992 ft 252 kts 229°
2026-04-22 18:45 17.24423 6.42473 7996 ft 254 kts 228°
2026-04-22 18:45 17.23243 6.41101 7995 ft 254 kts 228°
2026-04-22 18:45 17.22061 6.39728 7992 ft 255 kts 227°
2026-04-22 18:46 17.20875 6.38348 8000 ft 255 kts 228°
2026-04-22 18:46 17.19689 6.36966 7995 ft 255 kts 228°
2026-04-22 18:46 17.18505 6.35586 8000 ft 255 kts 228°
2026-04-22 18:46 17.17315 6.34203 7996 ft 255 kts 228°
2026-04-22 18:47 17.16129 6.32822 7998 ft 256 kts 227°
2026-04-22 18:47 17.14954 6.31456 7997 ft 256 kts 228°
2026-04-22 18:47 17.13763 6.30069 7994 ft 256 kts 228°
2026-04-22 18:47 17.12572 6.28686 7997 ft 256 kts 227°
2026-04-22 18:48 17.11382 6.27301 7996 ft 256 kts 228°
2026-04-22 18:48 17.10188 6.25914 7993 ft 256 kts 228°
2026-04-22 18:48 17.08994 6.24527 7996 ft 257 kts 228°
2026-04-22 18:48 17.07797 6.23135 7996 ft 258 kts 228°
2026-04-22 18:49 17.06598 6.21743 7996 ft 258 kts 228°
2026-04-22 18:49 17.05399 6.20350 7999 ft 258 kts 228°
2026-04-22 18:49 17.04207 6.18964 8126 ft 253 kts 228°
2026-04-22 18:49 17.03045 6.17620 8316 ft 247 kts 228°
2026-04-22 18:50 17.01905 6.16296 8507 ft 243 kts 228°
2026-04-22 18:50 17.00778 6.14988 8698 ft 241 kts 228°
2026-04-22 18:50 16.99657 6.13688 8892 ft 240 kts 228°
2026-04-22 18:50 16.98541 6.12394 9086 ft 239 kts 228°
2026-04-22 18:51 16.97431 6.11107 9283 ft 238 kts 228°
2026-04-22 18:51 16.96337 6.09837 9479 ft 238 kts 228°
2026-04-22 18:51 16.95225 6.08550 9685 ft 239 kts 230°
2026-04-22 18:51 16.94107 6.07253 9869 ft 241 kts 230°
2026-04-22 18:52 16.92978 6.05945 10000 ft 245 kts 230°
2026-04-22 18:52 16.91815 6.04594 10002 ft 254 kts 230°
2026-04-22 18:52 16.90614 6.03200 9938 ft 263 kts 230°
2026-04-22 18:52 16.89778 6.02230 9865 ft 268 kts 230°
2026-04-22 18:53 16.88522 6.00777 9838 ft 270 kts 230°
2026-04-22 18:53 16.87262 5.99322 9839 ft 270 kts 230°
2026-04-22 18:53 16.86021 5.97885 9837 ft 270 kts 230°
2026-04-22 18:53 16.84764 5.96429 9838 ft 270 kts 230°
2026-04-22 18:54 16.83504 5.94972 9834 ft 270 kts 230°
2026-04-22 18:54 16.82245 5.93514 9833 ft 270 kts 230°
2026-04-22 18:54 16.80985 5.92058 9833 ft 270 kts 230°
2026-04-22 18:54 16.79727 5.90602 9833 ft 270 kts 230°
2026-04-22 18:55 16.78469 5.89149 9895 ft 267 kts 230°
2026-04-22 18:55 16.77239 5.87729 10075 ft 261 kts 230°
2026-04-22 18:55 16.76034 5.86338 10259 ft 256 kts 230°
2026-04-22 18:55 16.74847 5.84966 10438 ft 253 kts 230°
2026-04-22 18:56 16.73674 5.83611 10615 ft 251 kts 230°
2026-04-22 18:56 16.72510 5.82267 10804 ft 248 kts 230°
2026-04-22 18:56 16.71356 5.80935 10991 ft 247 kts 230°
2026-04-22 18:56 16.70207 5.79608 11180 ft 246 kts 231°
2026-04-22 18:57 16.69064 5.78289 11374 ft 245 kts 231°
2026-04-22 18:57 16.67924 5.76974 11562 ft 244 kts 231°
2026-04-22 18:57 16.66791 5.75665 11753 ft 243 kts 231°
2026-04-22 18:57 16.65662 5.74364 11823 ft 248 kts 231°
2026-04-22 18:58 16.64490 5.73011 11826 ft 254 kts 231°
2026-04-22 18:58 16.63280 5.71609 11830 ft 258 kts 231°
2026-04-22 18:58 16.62081 5.70229 11821 ft 262 kts 230°
2026-04-22 18:58 16.60854 5.68818 11826 ft 263 kts 231°
2026-04-22 18:59 16.59624 5.67399 11826 ft 264 kts 231°
2026-04-22 18:59 16.58393 5.65981 11828 ft 264 kts 230°
2026-04-22 18:59 16.57160 5.64560 11829 ft 264 kts 231°
2026-04-22 18:59 16.55926 5.63139 11838 ft 264 kts 231°
2026-04-22 19:00 16.54690 5.61715 11837 ft 265 kts 231°
2026-04-22 19:00 16.53454 5.60292 11837 ft 265 kts 231°
2026-04-22 19:00 16.52218 5.58870 11839 ft 265 kts 231°
2026-04-22 19:00 16.50983 5.57450 11839 ft 264 kts 231°
2026-04-22 19:01 16.49750 5.56029 11839 ft 264 kts 231°
2026-04-22 19:01 16.48516 5.54611 11839 ft 264 kts 231°
2026-04-22 19:01 16.47278 5.53191 11839 ft 266 kts 230°
2026-04-22 19:01 16.46034 5.51760 11840 ft 267 kts 231°
2026-04-22 19:02 16.44783 5.50320 11841 ft 268 kts 231°
2026-04-22 19:02 16.43529 5.48877 11842 ft 269 kts 230°
2026-04-22 19:02 16.42283 5.47446 11846 ft 270 kts 230°
2026-04-22 19:02 16.41020 5.45996 11846 ft 271 kts 231°
2026-04-22 19:03 16.39740 5.44524 11849 ft 271 kts 230°
2026-04-22 19:03 16.38487 5.43085 11849 ft 271 kts 230°
2026-04-22 19:03 16.37219 5.41631 11847 ft 271 kts 230°
2026-04-22 19:03 16.35949 5.40171 11850 ft 272 kts 230°
2026-04-22 19:04 16.34679 5.38714 11847 ft 272 kts 230°
2026-04-22 19:04 16.33407 5.37254 11847 ft 272 kts 230°
2026-04-22 19:04 16.32130 5.35789 11847 ft 273 kts 230°
2026-04-22 19:04 16.30855 5.34328 11847 ft 273 kts 230°
2026-04-22 19:05 16.29580 5.32863 11851 ft 273 kts 229°
2026-04-22 19:05 16.28304 5.31401 11851 ft 273 kts 229°
2026-04-22 19:05 16.27028 5.29940 11851 ft 273 kts 229°
2026-04-22 19:05 16.25756 5.28481 11851 ft 272 kts 229°
2026-04-22 19:06 16.24482 5.27023 11851 ft 272 kts 229°
2026-04-22 19:06 16.23214 5.25568 11851 ft 272 kts 229°
2026-04-22 19:06 16.21943 5.24115 11851 ft 272 kts 229°
2026-04-22 19:07 16.19402 5.21205 11853 ft 271 kts 229°
2026-04-22 19:07 16.18132 5.19750 11851 ft 272 kts 229°
2026-04-22 19:07 16.16861 5.18296 11853 ft 272 kts 229°
2026-04-22 19:07 16.15591 5.16843 11850 ft 272 kts 229°
2026-04-22 19:08 16.14320 5.15388 11848 ft 272 kts 229°
2026-04-22 19:08 16.13046 5.13932 11850 ft 272 kts 229°
2026-04-22 19:08 16.11793 5.12499 11848 ft 272 kts 229°
2026-04-22 19:08 16.10520 5.11045 11847 ft 272 kts 229°
2026-04-22 19:09 16.09248 5.09589 11846 ft 272 kts 229°
2026-04-22 19:09 16.07974 5.08136 11846 ft 272 kts 229°
2026-04-22 19:09 16.06699 5.06679 11846 ft 272 kts 229°
2026-04-22 19:09 16.05424 5.05222 11847 ft 272 kts 229°
2026-04-22 19:10 16.04147 5.03763 11852 ft 273 kts 229°
2026-04-22 19:10 16.02870 5.02306 11850 ft 273 kts 229°
2026-04-22 19:10 16.01593 5.00848 11850 ft 273 kts 229°
2026-04-22 19:10 16.00314 4.99387 11841 ft 273 kts 229°
2026-04-22 19:11 15.99037 4.97932 11840 ft 273 kts 229°
2026-04-22 19:11 15.97760 4.96474 11839 ft 273 kts 229°
2026-04-22 19:11 15.96479 4.95013 11841 ft 273 kts 229°
2026-04-22 19:11 15.95198 4.93553 11841 ft 274 kts 229°
2026-04-22 19:12 15.93911 4.92084 11845 ft 275 kts 229°
2026-04-22 19:12 15.92624 4.90618 11843 ft 275 kts 229°
2026-04-22 19:12 15.91337 4.89152 11844 ft 274 kts 229°
2026-04-22 19:12 15.90050 4.87684 11840 ft 275 kts 228°
2026-04-22 19:13 15.88762 4.86218 11838 ft 274 kts 229°
2026-04-22 19:13 15.87479 4.84756 11839 ft 274 kts 229°
2026-04-22 19:13 15.86192 4.83291 11842 ft 274 kts 229°
2026-04-22 19:13 15.84907 4.81827 11841 ft 274 kts 229°
2026-04-22 19:14 15.83620 4.80362 11838 ft 274 kts 228°
2026-04-22 19:14 15.82332 4.78898 11840 ft 274 kts 228°
2026-04-22 19:14 15.81050 4.77437 11838 ft 274 kts 229°
2026-04-22 19:14 15.79765 4.75978 11838 ft 274 kts 228°
2026-04-22 19:15 15.78914 4.75010 11837 ft 274 kts 229°
2026-04-22 19:15 15.77197 4.73057 11837 ft 274 kts 228°
2026-04-22 19:15 15.75911 4.71595 11840 ft 274 kts 229°
2026-04-22 19:15 15.74642 4.70151 11837 ft 274 kts 228°
2026-04-22 19:16 15.73357 4.68692 11833 ft 274 kts 228°
2026-04-22 19:16 15.72069 4.67229 11837 ft 274 kts 228°
2026-04-22 19:16 15.70781 4.65765 11834 ft 275 kts 228°
2026-04-22 19:16 15.69492 4.64302 11836 ft 275 kts 228°
2026-04-22 19:17 15.68202 4.62838 11836 ft 275 kts 228°
2026-04-22 19:17 15.66914 4.61374 11833 ft 275 kts 228°
2026-04-22 19:17 15.65625 4.59910 11833 ft 274 kts 228°
2026-04-22 19:17 15.64337 4.58451 11833 ft 275 kts 228°
2026-04-22 19:18 15.63047 4.56986 11836 ft 274 kts 228°
2026-04-22 19:18 15.61759 4.55525 11836 ft 274 kts 228°
2026-04-22 19:18 15.60472 4.54066 11835 ft 274 kts 228°
2026-04-22 19:18 15.59184 4.52605 11829 ft 275 kts 228°
2026-04-22 19:19 15.57891 4.51139 11825 ft 276 kts 228°
2026-04-22 19:19 15.56597 4.49673 11827 ft 276 kts 228°
2026-04-22 19:19 15.55302 4.48205 11826 ft 275 kts 228°
2026-04-22 19:19 15.54008 4.46739 11826 ft 276 kts 228°
2026-04-22 19:20 15.52829 4.45405 11826 ft 276 kts 228°
2026-04-22 19:20 15.51552 4.43958 11825 ft 278 kts 228°
2026-04-22 19:20 15.50252 4.42482 11826 ft 277 kts 228°
2026-04-22 19:20 15.48952 4.41013 11824 ft 277 kts 228°
2026-04-22 19:21 15.47653 4.39546 11829 ft 276 kts 228°
2026-04-22 19:21 15.46352 4.38071 11826 ft 277 kts 228°
2026-04-22 19:21 15.45069 4.36618 11821 ft 278 kts 228°
2026-04-22 19:21 15.43762 4.35142 11822 ft 278 kts 228°
2026-04-22 19:22 15.42457 4.33664 11823 ft 278 kts 228°
2026-04-22 19:22 15.41156 4.32191 11821 ft 277 kts 228°
2026-04-22 19:22 15.39853 4.30720 11821 ft 277 kts 228°
2026-04-22 19:22 15.38548 4.29248 11820 ft 277 kts 228°
2026-04-22 19:23 15.37245 4.27775 11825 ft 278 kts 228°
2026-04-22 19:23 15.36161 4.26549 11822 ft 278 kts 228°
2026-04-22 19:23 15.34854 4.25071 11822 ft 278 kts 228°
2026-04-22 19:23 15.33549 4.23598 11821 ft 277 kts 228°
2026-04-22 19:24 15.32566 4.22489 11824 ft 277 kts 228°
2026-04-22 19:24 15.31308 4.21070 11819 ft 278 kts 228°
2026-04-22 19:24 15.30001 4.19592 11818 ft 278 kts 228°
2026-04-22 19:24 15.28697 4.18120 11820 ft 277 kts 227°
2026-04-22 19:25 15.27394 4.16652 11824 ft 276 kts 227°
2026-04-22 19:25 15.26115 4.15206 11822 ft 276 kts 227°
2026-04-22 19:25 15.24841 4.13769 11820 ft 276 kts 227°
2026-04-22 19:25 15.23539 4.12302 11820 ft 277 kts 227°
2026-04-22 19:26 15.22236 4.10836 11817 ft 276 kts 227°
2026-04-22 19:26 15.20987 4.09425 11818 ft 275 kts 227°
2026-04-22 19:26 15.19757 4.08038 11817 ft 276 kts 227°
2026-04-22 19:26 15.18459 4.06575 11817 ft 276 kts 227°
2026-04-22 19:27 15.17163 4.05116 11813 ft 276 kts 227°
2026-04-22 19:27 15.15867 4.03657 11814 ft 275 kts 227°
2026-04-22 19:27 15.14567 4.02194 11814 ft 275 kts 227°
2026-04-22 19:27 15.13272 4.00734 11816 ft 275 kts 227°
2026-04-22 19:28 15.11979 3.99278 11811 ft 275 kts 227°
2026-04-22 19:28 15.10684 3.97821 11811 ft 276 kts 227°
2026-04-22 19:28 15.09386 3.96361 11814 ft 275 kts 227°
2026-04-22 19:28 15.08088 3.94900 11811 ft 275 kts 227°
2026-04-22 19:29 15.06792 3.93443 11814 ft 275 kts 227°
2026-04-22 19:29 15.05493 3.91981 11814 ft 276 kts 227°
2026-04-22 19:29 15.04195 3.90523 11814 ft 276 kts 227°
2026-04-22 19:29 15.02896 3.89062 11807 ft 276 kts 227°
2026-04-22 19:30 15.02035 3.88095 11807 ft 276 kts 227°
2026-04-22 19:30 15.00299 3.86142 11808 ft 275 kts 227°
2026-04-22 19:30 14.99000 3.84684 11811 ft 275 kts 227°
2026-04-22 19:30 14.97722 3.83249 11807 ft 275 kts 227°
2026-04-22 19:31 14.96427 3.81795 11809 ft 275 kts 227°
2026-04-22 19:31 14.95133 3.80341 11813 ft 275 kts 226°
2026-04-22 19:31 14.93837 3.78885 11809 ft 275 kts 227°
2026-04-22 19:31 14.92542 3.77433 11808 ft 274 kts 226°
2026-04-22 19:32 14.91246 3.75978 11809 ft 274 kts 226°
2026-04-22 19:32 14.89952 3.74525 11810 ft 275 kts 226°
2026-04-22 19:32 14.88653 3.73070 11805 ft 275 kts 226°
2026-04-22 19:32 14.87356 3.71614 11805 ft 275 kts 226°
2026-04-22 19:33 14.86056 3.70156 11805 ft 275 kts 226°
2026-04-22 19:33 14.84756 3.68700 11805 ft 276 kts 226°
2026-04-22 19:33 14.83457 3.67243 11803 ft 276 kts 226°
2026-04-22 19:33 14.82155 3.65784 11806 ft 276 kts 226°
2026-04-22 19:34 14.80853 3.64325 11805 ft 276 kts 226°
2026-04-22 19:34 14.79550 3.62865 11805 ft 276 kts 226°
2026-04-22 19:34 14.78249 3.61407 11805 ft 276 kts 226°
2026-04-22 19:34 14.76944 3.59946 11806 ft 276 kts 226°
2026-04-22 19:35 14.75641 3.58488 11804 ft 277 kts 226°
2026-04-22 19:35 14.74336 3.57027 11803 ft 277 kts 226°
2026-04-22 19:35 14.73472 3.56059 11803 ft 276 kts 226°
2026-04-22 19:35 14.71729 3.54107 11803 ft 276 kts 226°
2026-04-22 19:36 14.70427 3.52653 11805 ft 276 kts 226°
2026-04-22 19:36 14.69139 3.51212 11808 ft 276 kts 226°
2026-04-22 19:36 14.67835 3.49752 11807 ft 276 kts 226°
2026-04-22 19:36 14.66531 3.48295 11808 ft 276 kts 226°
2026-04-22 19:37 14.65227 3.46837 11807 ft 276 kts 226°
2026-04-22 19:37 14.63924 3.45379 11807 ft 276 kts 226°
2026-04-22 19:37 14.62619 3.43921 11807 ft 276 kts 226°
2026-04-22 19:37 14.61313 3.42464 11805 ft 277 kts 226°
2026-04-22 19:38 14.60007 3.41004 11804 ft 276 kts 226°
2026-04-22 19:38 14.58703 3.39547 11808 ft 276 kts 226°
2026-04-22 19:38 14.57398 3.38089 11805 ft 276 kts 226°
2026-04-22 19:38 14.56093 3.36634 11807 ft 276 kts 226°
2026-04-22 19:39 14.54790 3.35178 11805 ft 276 kts 226°
2026-04-22 19:39 14.53485 3.33722 11807 ft 276 kts 226°
2026-04-22 19:39 14.52181 3.32268 11805 ft 276 kts 226°
2026-04-22 19:39 14.50880 3.30814 11806 ft 276 kts 226°
2026-04-22 19:40 14.50015 3.29850 11806 ft 276 kts 226°
2026-04-22 19:40 14.48286 3.27921 11806 ft 277 kts 226°
2026-04-22 19:40 14.46980 3.26465 11802 ft 276 kts 226°
2026-04-22 19:40 14.45674 3.25009 11807 ft 276 kts 226°
2026-04-22 19:41 14.44791 3.24025 11805 ft 276 kts 226°
2026-04-22 19:41 14.43503 3.22589 11806 ft 276 kts 226°
2026-04-22 19:41 14.42198 3.21135 11805 ft 276 kts 226°
2026-04-22 19:41 14.40888 3.19678 11810 ft 276 kts 226°
2026-04-22 19:42 14.39583 3.18221 11805 ft 277 kts 226°
2026-04-22 19:42 14.38276 3.16765 11806 ft 276 kts 226°
2026-04-22 19:42 14.36971 3.15311 11806 ft 276 kts 226°
2026-04-22 19:42 14.35664 3.13859 11805 ft 276 kts 226°
2026-04-22 19:43 14.33049 3.10947 11805 ft 277 kts 226°
2026-04-22 19:43 14.31742 3.09493 11805 ft 276 kts 226°
2026-04-22 19:43 14.30434 3.08038 11805 ft 276 kts 226°
2026-04-22 19:44 14.29126 3.06585 11807 ft 276 kts 226°
2026-04-22 19:44 14.27820 3.05132 11806 ft 277 kts 226°
2026-04-22 19:44 14.26511 3.03676 11804 ft 277 kts 226°
2026-04-22 19:44 14.25201 3.02218 11805 ft 277 kts 226°
2026-04-22 19:45 14.23906 3.00781 11804 ft 277 kts 226°
2026-04-22 19:45 14.22597 2.99326 11805 ft 277 kts 226°
2026-04-22 19:45 14.21287 2.97869 11805 ft 278 kts 226°
2026-04-22 19:45 14.19970 2.96409 11805 ft 278 kts 226°
2026-04-22 19:46 14.18654 2.94945 11801 ft 278 kts 227°
2026-04-22 19:46 14.17335 2.93480 11801 ft 279 kts 226°
2026-04-22 19:46 14.16016 2.92018 11801 ft 279 kts 226°
2026-04-22 19:46 14.14696 2.90552 11801 ft 279 kts 227°
2026-04-22 19:47 14.13376 2.89086 11804 ft 279 kts 227°
2026-04-22 19:47 14.12054 2.87620 11804 ft 279 kts 226°
2026-04-22 19:47 14.10736 2.86159 11805 ft 280 kts 227°
2026-04-22 19:47 14.09421 2.84699 11804 ft 280 kts 226°
2026-04-22 19:48 14.08093 2.83228 11805 ft 280 kts 226°
2026-04-22 19:48 14.06766 2.81756 11805 ft 280 kts 226°
2026-04-22 19:48 14.05440 2.80283 11805 ft 280 kts 226°
2026-04-22 19:48 14.04115 2.78815 11804 ft 280 kts 226°
2026-04-22 19:49 14.02787 2.77346 11804 ft 280 kts 226°
2026-04-22 19:49 14.01457 2.75871 11804 ft 280 kts 227°
2026-04-22 19:49 14.00132 2.74401 11805 ft 280 kts 226°
2026-04-22 19:49 13.98802 2.72932 11805 ft 280 kts 226°
2026-04-22 19:50 13.97472 2.71459 11804 ft 281 kts 226°
2026-04-22 19:50 13.96145 2.69988 11804 ft 280 kts 227°
2026-04-22 19:50 13.94818 2.68519 11805 ft 280 kts 226°
2026-04-22 19:50 13.93492 2.67053 11799 ft 280 kts 226°
2026-04-22 19:51 13.92166 2.65583 11802 ft 280 kts 226°
2026-04-22 19:51 13.90837 2.64114 11803 ft 280 kts 226°
2026-04-22 19:51 13.89511 2.62646 11763 ft 281 kts 226°
2026-04-22 19:51 13.88141 2.61135 11329 ft 292 kts 226°
2026-04-22 19:52 13.86806 2.59621 10898 ft 281 kts 227°
2026-04-22 19:52 13.85525 2.58141 10473 ft 274 kts 227°
2026-04-22 19:52 13.84243 2.56668 10067 ft 279 kts 227°
2026-04-22 19:52 13.82923 2.55172 9652 ft 284 kts 227°
2026-04-22 19:53 13.81585 2.53662 9204 ft 287 kts 227°
2026-04-22 19:53 13.80232 2.52152 8770 ft 294 kts 226°
2026-04-22 19:53 13.78813 2.50608 8335 ft 299 kts 225°
2026-04-22 19:53 13.77367 2.49060 7910 ft 301 kts 225°
2026-04-22 19:54 13.75903 2.47512 7487 ft 302 kts 225°
2026-04-22 19:54 13.74437 2.45968 7065 ft 302 kts 225°
2026-04-22 19:54 13.72968 2.44426 6653 ft 300 kts 224°
2026-04-22 19:54 13.71508 2.42896 6250 ft 299 kts 224°
2026-04-22 19:55 13.70052 2.41375 5821 ft 297 kts 224°
2026-04-22 19:55 13.68607 2.39863 5397 ft 295 kts 224°
2026-04-22 19:55 13.67170 2.38366 4976 ft 294 kts 224°
2026-04-22 19:55 13.65737 2.36877 4560 ft 291 kts 224°
2026-04-22 19:56 13.64321 2.35404 4130 ft 288 kts 224°
2026-04-22 19:56 13.62914 2.33949 3708 ft 286 kts 224°
2026-04-22 19:56 13.61531 2.32520 3298 ft 283 kts 224°
2026-04-22 19:56 13.60176 2.31104 2978 ft 268 kts 225°
2026-04-22 19:57 13.58938 2.29779 2967 ft 250 kts 225°
2026-04-22 19:57 13.57738 2.28513 2962 ft 245 kts 224°
2026-04-22 19:57 13.56530 2.27268 2966 ft 247 kts 222°
2026-04-22 19:57 13.55292 2.26027 2964 ft 249 kts 222°
2026-04-22 19:58 13.54125 2.24809 2964 ft 231 kts 229°
2026-04-22 19:58 13.53413 2.23381 2966 ft 221 kts 257°
2026-04-22 19:58 13.53203 2.21823 2791 ft 222 kts 265°
2026-04-22 19:58 13.53044 2.20239 2557 ft 223 kts 265°
2026-04-22 19:59 13.52905 2.18717 2472 ft 188 kts 266°
2026-04-22 20:00 13.52015 2.10827 2013 ft 221 kts 261°
2026-04-22 20:00 13.51543 2.09352 1956 ft 203 kts 232°
2026-04-22 20:01 13.50545 2.08655 1864 ft 157 kts 182°
2026-04-22 20:01 13.49572 2.08947 1752 ft 149 kts 134°
2026-04-22 20:01 13.49012 2.09901 1617 ft 163 kts 102°
2026-04-22 20:01 13.48966 2.10945 1475 ft 136 kts 88°
2026-04-22 20:02 13.49012 2.11886 1284 ft 134 kts 82°
2026-04-22 20:02 13.48861 2.12789 1100 ft 128 kts 107°
2026-04-22 20:02 13.48640 2.13617 1333 ft 124 kts 83°
2026-04-22 20:02 13.48624 2.14564 1231 ft 139 kts 87°
2026-04-22 20:03 13.48709 2.15585 1084 ft 133 kts 73°
2026-04-22 20:03 13.48642 2.16322 1010 ft 96 kts 108°
2026-04-22 20:03 13.48474 2.16983 830 ft 90 kts 82°
2026-04-22 20:03 13.48501 2.17635 727 ft 90 kts 82°
2026-04-22 20:04 13.48531 2.18185 730 ft 61 kts 85°
2026-04-22 20:04 13.48544 2.18556 731 ft 60 kts 86°
2026-04-22 20:04 13.48562 2.18965 727 ft 45 kts 86°
2026-04-22 20:04 13.48578 2.19269 725 ft 53 kts 88°
2026-04-22 20:05 13.48590 2.19553 727 ft 29 kts 85°
2026-04-22 20:05 13.48497 2.19642 725 ft 17 kts 179°
2026-04-22 20:05 13.48462 2.19643 722 ft 8 kts 178°
2026-04-22 20:05 13.48405 2.19646 720 ft 14 kts 172°
2026-04-22 20:06 13.48254 2.19691 714 ft 29 kts 165°
2026-04-22 20:06 13.48117 2.19700 717 ft 15 kts 207°
2026-04-22 20:06 13.48090 2.19594 715 ft 22 kts 269°
2026-04-22 20:06 13.48086 2.19411 717 ft 22 kts 269°
2026-04-22 20:07 13.48077 2.19264 716 ft 23 kts 266°
2026-04-22 20:07 13.48072 2.19158 717 ft 8 kts 271°
2026-04-22 20:07 13.48070 2.19109 718 ft 11 kts 267°
2026-04-22 20:07 13.48065 2.18989 718 ft 24 kts 269°
2026-04-22 20:08 13.48056 2.18798 719 ft 30 kts 267°
2026-04-22 20:08 13.48048 2.18617 721 ft 20 kts 266°
2026-04-22 20:08 13.47997 2.18525 721 ft 14 kts 185°
2026-04-22 20:08 13.47931 2.18520 722 ft 3 kts 203°
2026-04-22 20:09 13.47910 2.18458 722 ft 13 kts 267°
2026-04-22 20:09 13.47906 2.18390 723 ft 7 kts 267°
2026-04-22 20:09 13.47902 2.18299 723 ft 17 kts 268°
2026-04-22 20:09 13.47898 2.18186 724 ft 15 kts 266°
2026-04-22 20:10 13.47893 2.18088 724 ft 15 kts 268°
2026-04-22 20:10 13.47890 2.17991 725 ft 12 kts 267°
2026-04-22 20:10 13.47883 2.17872 726 ft 13 kts 265°
2026-04-22 20:10 13.47879 2.17799 726 ft 13 kts 268°
2026-04-22 20:11 13.47852 2.17726 726 ft 11 kts 179°
2026-04-22 20:11 13.47784 2.17729 726 ft 7 kts 176°
2026-04-22 20:11 13.47773 2.17730 726 ft 0 kts 179°